Weather History for Bettles, AK

Change the Weather History Date:

Monday, August 19, 2013

  Actual Average Record
Temperature  
Mean Temperature 46 °F -  
Max Temperature 55 °F 61 °F 81 °F (2004)
Min Temperature 36 °F 42 °F 30 °F (1997)
Degree Days  
Heating Degree Days 20    
Moisture  
Dew Point 42 °F    
Average Humidity 84    
Maximum Humidity 100    
Minimum Humidity 54    
Precipitation  
Precipitation 0.08 in - - ()
Sea Level Pressure  
Sea Level Pressure 29.62 in    
Wind  
Wind Speed 1 mph (NW)    
Max Wind Speed 5 mph    
Max Gust Speed -    
Visibility 10 miles    
Events Rain    
Averages and records for this station are not official NWS values.
T = Trace of Precipitation, MM = Missing Value Source: NWS Daily Summary

Daily Weather History Graph

Daily Weather History Graph

Search for Another Location

Airport:

Trip Planner

Search our weather history database for the weather conditions in past years. The results will help you decide how hot, cold, wet, or windy it might be!

Date:

Astronomy

Aug. 19, 2013 Rise Set
Actual Time 5:52 AM AKDT 10:23 PM AKDT
Civil Twilight 4:37 AM AKDT 11:37 PM AKDT
Nautical Twilight 2:42 AM AKDT 1:37 AM AKDT
Astronomical Twilight Sun does not rise Sun does not rise
Moon 9:12 PM AKDT (8/19) 4:10 AM AKDT (8/19)
Length of Visible Light 18h 59m
Length of Day
16h 30m
Waxing Gibbous, 98% of the Moon is Illuminated
Aug 19
Waxing Gibbous
Aug 20
Full
Aug 28
Last Quarter
Sep 5
New
Sep 12
First Quarter

Hourly Weather History & Observations

Time (AKDT) Temp. Windchill Dew Point Humidity Pressure Visibility Wind Dir Wind Speed Gust Speed Precip Events Conditions
12:53 AM 41.0 °F 39.0 °F 37.9 °F 89% 29.57 in 10.0 mi ESE 3.5 mph - N/A   Mostly Cloudy
1:53 AM 41.0 °F - 39.0 °F 93% 29.57 in 10.0 mi Calm Calm - N/A   Mostly Cloudy
2:53 AM 42.1 °F 40.2 °F 37.9 °F 85% 29.57 in 10.0 mi South 3.5 mph - N/A   Mostly Cloudy
3:53 AM 37.0 °F - 35.1 °F 93% 29.58 in 10.0 mi Calm Calm - N/A   Mostly Cloudy
4:53 AM 36.0 °F - 35.1 °F 97% 29.60 in 10.0 mi Calm Calm - N/A   Mostly Cloudy
5:53 AM 39.9 °F - 37.9 °F 93% 29.60 in 10.0 mi Calm Calm - N/A   Mostly Cloudy
6:53 AM 39.0 °F - 37.0 °F 93% 29.60 in 10.0 mi Calm Calm - N/A   Overcast
7:53 AM 41.0 °F - 37.9 °F 89% 29.60 in 10.0 mi Calm Calm - N/A   Overcast
8:53 AM 44.1 °F - 39.9 °F 85% 29.61 in 10.0 mi Calm Calm - N/A   Overcast
9:53 AM 46.9 °F - 41.0 °F 80% 29.61 in 10.0 mi Calm Calm - N/A   Overcast
10:53 AM 48.0 °F - 41.0 °F 77% 29.63 in 10.0 mi Calm Calm - N/A   Overcast
11:53 AM 50.0 °F - 42.1 °F 74% 29.63 in 10.0 mi Calm Calm - N/A   Overcast
12:53 PM 52.0 °F - 42.1 °F 69% 29.64 in 10.0 mi Calm Calm - N/A   Overcast
1:53 PM 54.0 °F - 42.1 °F 64% 29.65 in 10.0 mi Calm Calm - N/A   Overcast
2:53 PM 54.0 °F - 43.0 °F 66% 29.65 in 10.0 mi NW 3.5 mph - N/A   Overcast
3:53 PM 54.0 °F - 42.1 °F 64% 29.65 in 10.0 mi Calm Calm - 0.00 in Rain Light Rain
4:53 PM 54.0 °F - 44.1 °F 69% 29.65 in 10.0 mi Calm Calm - 0.00 in Rain Light Rain
5:53 PM 53.1 °F - 46.0 °F 77% 29.65 in 10.0 mi Calm Calm - 0.00 in Rain Light Rain
6:53 PM 51.1 °F - 46.9 °F 86% 29.66 in 10.0 mi Calm Calm - 0.01 in Rain Light Rain
7:53 PM 50.0 °F - 48.0 °F 93% 29.66 in 10.0 mi Calm Calm - 0.02 in Rain Light Rain
8:53 PM 48.9 °F - 46.9 °F 93% 29.66 in 10.0 mi Calm Calm - 0.01 in Rain Light Rain
9:33 PM 48.2 °F - 46.4 °F 93% 29.63 in 10.0 mi Calm Calm - 0.03 in Rain Light Rain
9:53 PM 46.9 °F - 46.0 °F 97% 29.65 in 10.0 mi NW 3.5 mph - 0.04 in Rain Light Rain
10:53 PM 46.0 °F - 45.0 °F 96% 29.65 in 7.0 mi Calm Calm - 0.04 in Rain Rain
11:09 PM 46.4 °F 45.2 °F 44.6 °F 93% 29.62 in 7.0 mi NW 3.5 mph - 0.02 in Rain Rain
11:48 PM 44.6 °F 43.1 °F 44.6 °F 100% 29.62 in 10.0 mi NW 3.5 mph - 0.03 in Rain Light Rain
11:53 PM 45.0 °F 42.6 °F 44.1 °F 97% 29.65 in 10.0 mi WNW 4.6 mph - 0.03 in Rain Light Rain